User: anonymous
Location: Oshawa
(43.9000°N, 78.8670°W)
Time: 00:04:39
(UTC-04:00)
Language:

CZ-4C R/B - Orbit

View from above orbital plane
View from above orbital plane
View from above satellite
View from above satellite

Ground track
Ground track

The orbit data is extracted from the following two-line orbital elements,

1 32290U 07055B   14261.23333162  .00007795  00000-0  29897-3 0  9525
2 32290 097.5696 336.6125 0088577 084.6974 000.0665 15.23117823378434
Epoch (UTC): 18 September 2014 05:35:59
Eccentricity: 0.0088577
inclination: 97.5696°
perigee height: 435 km
apogee height: 557 km
right ascension of ascending node: 336.6125°
argument of perigee: 84.6974°
revolutions per day: 15.23117823
mean anomaly at epoch: 0.0665°
orbit number at epoch: 37843

The dashed part of the orbit path shows where the satellite is in the earth's shadow,  

DLR